[Date Prev][Date Next][Thread Prev][Thread Next] - [Date Index][Thread Index][Author Index]

2 Line ISS Keps 1-28



ISS
1 25544U 98067A   03028.20209491  .00124526  00000-0  15008-2 0  6319
2 25544  51.6366   3.4021 0005782  87.1891 105.5075 15.59859934239167


----
Via the sarex mailing list at AMSAT.ORG courtesy of AMSAT-NA.
To unsubscribe, send "unsubscribe sarex" to Majordomo@amsat.org



AMSAT Top AMSAT Home